Regional Weather Roundup
Issued by NWS Wakefield, VA

Home | Current Version | Previous Version | Text Only | Print | Product List | Glossary On
Versions: 1 2 3 4 5 6 7 8 9 10 11 12 13 14 15 16 17 18 19 20 21 22 23 24 25 26 27 28
000
ASUS41 KAKQ 301710
RWRAKQ

REGIONAL WEATHER ROUNDUP
NATIONAL WEATHER SERVICE WAKEFIELD VA
100 PM EDT THU OCT 30 2014

Note: "fair" indicates few or no clouds below 12,000 feet with no
significant weather and/or obstructions to visibility. * = Denotes
station may not report precipitation (e.g., rain,snow,etc.),
thunder or fog.

VAZ042-051-052>054-056-301800-
NORTHERN VIRGINIA

CITY           SKY/WX    TMP DP  RH WIND       PRES   REMARKS
WASH NATIONAL  MOSUNNY   61  38  42 NW10      30.06F
DULLES         MOSUNNY   56  37  49 NW8       30.06F
FORT BELVOIR   SUNNY     59  37  42 NW17      30.06F
QUANTICO       MOSUNNY   61  36  39 N9        30.06F
FREDERICKSBRG* SUNNY     61  35  38 NW12      30.05F
STAFFORD*      SUNNY     59  34  39 NW12      30.09F
WARRENTON      PTSUNNY   60  44  54 N7        30.07F
CULPEPER*      MOSUNNY   59  37  44 N9        30.07F
MANASSAS*      MOSUNNY   57  37  47 NW7       30.07
LEESBURG*      MOSUNNY   57  43  58 NW10      30.07F
WINCHESTER     CLOUDY    55  30  38 NW8G17    30.07F
FRONT ROYAL*   CLOUDY    52  36  54 N7        30.07F
LURAY*         CLOUDY    54  36  50 NW7       30.08F
$$

VAZ048-049-060>072-079>083-301800-
CENTRAL AND SOUTH CENTRAL VIRGINIA...AND NORTH CENTRAL NORTH CAROLINA

CITY           SKY/WX    TMP DP  RH WIND       PRES   REMARKS
RICHMOND       MOSUNNY   63  39  41 NE9       30.04F
CHESTERFIELD*  SUNNY     63  36  36 N7        30.06F
PETERSBURG*    SUNNY     62  38  41 NE9       30.05F
HANOVER        SUNNY     60  38  43 NW7       30.06F
TAPPAHANNOCK*  SUNNY     61  33  35 N8        30.06F
CHARLOTTSVILLE CLOUDY    56  35  45 N9        30.07F
ORANGE*        MOSUNNY   57  36  44 NW10G16   30.08F
LOUISA*        MOSUNNY   61  37  41 NE8       30.05F
FARMVILLE*     MOSUNNY   63  41  45 NE6       30.03F
CREWE*         MOSUNNY   60  42  50 N5        30.05F
FORT PICKETT*  SUNNY     60  45  57 NE5       30.04F
LUNENBURG*     SUNNY     62  46  56 CALM      30.04F
SOUTH HILL*    MOSUNNY   64  45  48 CALM      30.08F
LAWRENCEVILLE* SUNNY     62  48  60 N5        30.03F
ROANOKE RAPIDS MOSUNNY   63  46  55 NE7       30.03F
RALEIGH        MOSUNNY   65  40  39 NE6       30.03F
$$

VAZ088>098-301800-
SOUTHEAST VIRGINIA

CITY           SKY/WX    TMP DP  RH WIND       PRES   REMARKS
NORFOLK        SUNNY     62  50  64 N10       30.03F
VIRGINIA BEACH MOSUNNY   65  53  65 N12       30.02F
NORFOLK NAVAL  MOSUNNY   64  49  57 N13       30.04F
WEST POINT*    SUNNY     64  41  43 NW5       30.05F
NEWPORT NEWS   SUNNY     66  47  50 NE8       30.03F
LANGLEY AFB    SUNNY     61  49  64 NE8       30.03F
FORT EUSTIS    SUNNY     62  45  52 NW2       30.02F
WILLIAMSBURG*  SUNNY     68  48  49 N6        30.04F
HR EXEC AP*    MOSUNNY   63  52  67 NE5       30.04F
FRANKLIN*      MOSUNNY   64  46  52 N5        30.03F
WAKEFIELD      SUNNY     63  45  51 VRB5      30.04F
$$

VAZ020-022-025-037-045-301800-
WEST CENTRAL AND SOUTHWEST VIRGINIA

CITY           SKY/WX    TMP DP  RH WIND       PRES   REMARKS
STAUNTON*      CLOUDY    51  36  57 NE8       30.10F
HOT SPRINGS VA CLOUDY    41  32  68 NW6       30.03F
LYNCHBURG      SUNNY     59  36  42 VRB6      30.06F
DANVILLE       SUNNY     63  37  38 CALM      30.05F
SOUTH BOSTON*  NOT AVBL
MARTINSVILLE   SUNNY     62  37  39 N9        30.08F
ROANOKE        MOSUNNY   58  34  40 VRB6      30.08F
BLACKSBURG     MOSUNNY   54  39  58 NW6       30.08F
DUBLIN*        PTSUNNY   53  38  56 N6        30.09F
MARION*        PTSUNNY   51  36  57 W6        30.10S
HILLSVILLE*    MOSUNNY   50  37  61 W8        30.07F
RICHLANDS*     PTSUNNY   48  37  65 W3        30.10S
WISE*          SUNNY     50  34  53 N5        30.10F
ABINGDON*      PTSUNNY   53  42  67 CALM      30.09F
$$

MDZ021>025-VAZ099-100-301800-
SOUTHERN MARYLAND AND THE DELMARVA PENINSULA

CITY           SKY/WX    TMP DP  RH WIND       PRES   REMARKS
PATUXENT RIVER MOSUNNY   59  40  49 NE10      30.04F
BAY BRIDGE APT   N/A     57  36  44 NW8       30.05F
LEONARDTOWN    SUNNY     57  34  41 N5        30.05F
DOVER          SUNNY     58  42  56 VRB3      30.00F
GEORGETOWN     SUNNY     60  40  47 VRB6      30.03F
EASTON         MOSUNNY   59  41  51 NW8       30.07F
CAMBRIDGE      SUNNY     59  37  44 NW10      30.03F
SALISBURY      SUNNY     63  41  44 N7        30.02F
OCEAN CITY     MOSUNNY   60  43  53 VRB3      30.01F
WALLOPS ISLAND MOSUNNY   62  45  53 NW6       30.02F
ACCOMACK*      SUNNY     61  45  55 NW8G18    30.02F
$$

NCZ012>017-030>032-301800-
EASTERN NORTH CAROLINA

CITY           SKY/WX    TMP DP  RH WIND       PRES   REMARKS
ELIZABETH CITY MOSUNNY   68  48  48 N10       30.01F
AHOSKIE*       NOT AVBL
EDENTON*       MOSUNNY   64  53  67 N10       30.02F
CURRITUCK*     SUNNY     65  46  50 N10       30.02F
KILL DEVIL HLS CLOUDY    65  48  53 NE9       29.99F
MANTEO         CLOUDY    64  50  60 NE10      30.00F
CAPE HATTERAS  CLOUDY    66  54  65 NE12G22   29.97F
TARBORO*       MOSUNNY   65  50  58 NE9       30.03F
GOLDSBORO      SUNNY     66  50  55 NE13      30.00F
WASHINGTON     MOSUNNY   62  49  62 NE7       30.02F
GREENVILLE     SUNNY     64  46  52 NE13      30.04F
NEW BERN       MOSUNNY   65  51  60 NE12      30.01F
WILMINGTON     CLOUDY    67  51  56 NE10      29.98F
$$

VAZ048-301800-
ELSEWHERE

CITY           SKY/WX    TMP DP  RH WIND       PRES   REMARKS
HARRISBURG PA  PTSUNNY   56  40  55 W13       30.03F
BALTIMORE      MOSUNNY   56  38  50 N6        30.04F
ANNAPOLIS      SUNNY     57  39  51 NW8       30.04F
ANDREWS AFB    SUNNY     58  37  46 NW14      30.04F
WILMINGTON DE  MOSUNNY   57  41  55 NW8       30.03F
PHILADELPHIA   MOSUNNY   58  39  49 N8        30.02F
WILDWOOD NJ*   SUNNY     57  39  51 W7        30.02F
ATLANTIC CITY  PTSUNNY   59  44  57 VRB6      30.00F
HENDERSON NC   SUNNY     63  42  46 NE3       30.04F
GREENSBORO     SUNNY     62  37  39 N8        30.04F
ROCKY MOUNT    SUNNY     65  46  50 NE12      30.03F
FAYETTEVILLE   SUNNY     69  44  40 N10       30.01F
CHARLOTTE      SUNNY     65  33  30 N7        30.05F
$$

VAZ100-301800-
MARINE

STATION/POSITION TIME  TEMP    WIND        PRES    WAVE   SWELL
                       AIR SEA DIR/SP/G            HT/PER HT/PER
                 (UTC) (F)     (DEG/KT/KT) (MB)    (FT/S) (FT/S)
44066 TX TWR #4  1700   59 65  280/ 10/ 14 1014.4F   2/ 7   2/ 7
CAPE MAY NJ      1700   58 65  310/  4/  9 1016.0F
LEWES DE         1700   54 61  330/ 11/ 13 1016.3F
15NM E FENWICK I 1700   57 64              1016.0F   2/ 4
OCEAN-CITY-INLET 1700   59 62   30/  6/  9 1015.9F
WACHAPREAGUE VA  1700   63 63  320/  3/  9 1016.5S
THOMAS POINT MD  1700   55 62  360/  9/ 11 1018.1F
GOOSES REEF MD   1700   54      30/  8/ 10 1018.0F
COVE POINT MD    1700   54      20/  7/ 10 1017.2F
SOLOMONS ISLAND  1700      63                N/A
BISHOPS HEAD MD  1700   58 61   10/  7/ 16 1016.5F
PINEY POINT MD   1700          320/  8/ 10   N/A
POTOMAC MD       1700   57     350/  8/ 12 1016.9F
CAMBRIDGE MD     1700   56 60  330/  8/ 12 1016.9F
LEWISETTA VA     1700   56 62  340/  9/ 11 1017.0F
RAPPAHANNOCK LGT 1700          340/ 18/ 20 1017.2F
STINGRAY PT      1700   59      10/ 12/ 16 1017.6F
YORK RVR RNG VA  1700   59      10/  9/ 10 1016.4F
YORKTOWN VA      1700   60 64   50/  7/  9 1016.6F
JAMESTOWN VA     1700   59      50/  6/  8   N/A
DOMINION TERM VA 1700   60     300/  4/  6 1016.8F
KIPTOPEKE VA     1700      67  350/ 10/ 16   N/A
CHES BAY BRIDGE  1700   59 64  350/ 14/ 17 1016.3F
CHESAPEAKE LGHT  1600   60     360/ 12/ 13 1017.4S
WILLOUBY STN VA  1700   59      30/ 11/ 12 1015.6F
S CRANEY ISL VA  1700          330/  8/ 10 1016.6F
CAPE HENRY BUOY  1700      65                N/A     3/ 5
1ST LANDING BUOY 1700   60     350/ 14/ 16 1016.5F
CAPE CHARLES BUO 1700      65                N/A     2/ 5   2/ 9
64NM E OF VA BCH 1700   63 67   20/ 14/ 17 1015.1F   4/ 5   2/ 9
DUCK PIER NC     1700   62 67   10/ 12/ 19 1015.1F
44100 DUCK FRF   1600      67                N/A     4/ 5
OREGON INLET NC  1700   64 67   20/ 14/ 18 1015.6R
HATTERAS NC      1700   64 69   20/ 19/ 22 1015.4F
DIAMOND SHLS NC  1700   67     360/ 17/ 21 1014.2F   4/ 5
CAPE LOOKOUT NC  1600   63      30/ 19/ 21 1015.1F
$$



USA.gov is the U.S. government's official web portal to all federal, state and local government web resources and services.